Flag for Switzerland Weather past 2 weeks in Versoix, Geneva, Switzerland

Now
46 °F

Cool.


Feels Like: 44 °F
Forecast: 34 / 43 °F
Wind: 6 mph from Southwest

Location: Geneve-Cointrin

Current Time: Mar 3, 2015 at 9:40:45 PM

Latest Report: Mar 3, 2015 at 9:00 PM


Visibility: N/A

Pressure: 30.26 "Hg

Humidity: 51%

Dew point: 29 °F

Location of VersoixLocation

Historic Weather in Versoix — Graph

°F

Versoix temperature yesterday

Maximum temperature yesterday: 54 °F (at 12:00 PM)
Minimum temperature yesterday: 45 °F (at 9:00 PM)
Average temperature yesterday: 49 °F

Past Weeks' High & Low Weather Summary

 TemperatureHumidityPressure
High54 °F (Mar 3, 3:00 PM)95% (Feb 21, 1:00 PM)30.69 "Hg (Feb 21, 1:00 PM)
Low27 °F (Feb 20, 5:00 AM)23% (Feb 20, 3:00 PM)29.62 "Hg (Feb 21, 10:00 AM)
Average39 °F76%30.11 "Hg
* Reported Feb 16 10:00 PM — Mar 3 8:00 PM, Versoix, Weather by CustomWeather, © 2015

Note: Actual official high and low records may vary slightly from our data, if they occured in-between our weather recording intervals... More about our weather records

Advertising

Versoix weather history for previous 24 hours

 ConditionsComfort  
Time TempWeatherWind HumidityBarometerVisibility
8:00 PM
Tue, Mar 3
47 °FCool.7 mph50%30.25 "HgN/A
7:00 PM49 °FPassing clouds.6 mph43%30.23 "Hg37 mi
6:00 PM51 °FCool.7 mph42%30.22 "HgN/A
5:00 PM53 °FCool.12 mph36%30.20 "HgN/A
4:00 PM54 °FPassing clouds.12 mph37%30.20 "Hg37 mi
3:00 PM54 °FCool.12 mph37%30.20 "HgN/A
2:00 PM53 °FCool.9 mph39%30.22 "HgN/A
1:00 PM53 °FScattered clouds.9 mph47%30.23 "Hg31 mi
12:00 PM51 °FCool.9 mph54%30.24 "HgN/A
11:00 AM49 °FCool.5 mph62%30.26 "HgN/A
10:00 AM44 °FPartly sunny.3 mph70%30.28 "Hg25 mi
9:00 AM41 °FQuite cool.1 mph78%30.28 "HgN/A
8:00 AM37 °FChilly.2 mph87%30.28 "HgN/A
7:00 AM37 °FPassing clouds.3 mph87%30.28 "Hg25 mi
6:00 AM36 °FChilly.5 mph91%30.28 "HgN/A
5:00 AM38 °FChilly.5 mph87%30.27 "HgN/A
4:00 AM39 °FOvercast.3 mph85%30.26 "Hg19 mi
3:00 AM40 °FChilly.5 mph83%30.27 "HgN/A
2:00 AM42 °FQuite cool.3 mph78%30.27 "HgN/A
1:00 AM42 °FPassing clouds.7 mph78%30.27 "Hg19 mi
12:00 AM43 °FQuite cool.5 mph74%30.27 "HgN/A
11:00 PM
Mon, Mar 2
46 °FCool.6 mph65%30.24 "HgN/A
9:00 PM45 °FCool.5 mph68%30.20 "HgN/A
Weather by CustomWeather, © 2015

See weather overviewHow to use our weather pages